Location: Ambrosina
(19.9365°S, 43.9833°W)
Time: 13:16:28
(UTC+00:00)

Cosmos 968 Rocket - Visible Passes

Search period start: 24 September 2021 00:00
Search period end: 04 October 2021 00:00
Orbit: 740 x 771 km, 74.0° (Epoch: 23 September)

Date Brightness Start Highest point End Pass type
(mag) Time Alt. Az. Time Alt. Az. Time Alt. Az.
24 Sep 6.2 07:21:29 10° NE 07:25:00 19° E 07:28:32 10° SE visible
25 Sep 3.5 08:20:37 10° NNW 08:25:41 62° WSW 08:30:47 10° S visible
26 Sep 4.1 07:39:57 10° N 07:45:00 59° ENE 07:50:03 10° SSE visible
27 Sep 5.5 07:00:08 10° NNE 07:04:23 27° E 07:08:38 10° SE visible
28 Sep 6.4 06:22:02 10° ENE 06:23:51 12° E 06:25:39 10° ESE visible
28 Sep 3.8 08:00:18 10° NW 08:05:09 43° WSW 08:10:02 10° S visible
29 Sep 3.4 07:19:18 10° N 07:24:25 85° ENE 07:29:34 10° SSE visible
30 Sep 4.8 06:39:59 15° NNE 06:43:46 38° E 06:48:29 10° SE visible
01 Oct 5.9 06:01:29 15° ENE 06:03:12 17° E 06:06:30 10° ESE visible
01 Oct 4.2 07:41:35 17° WNW 07:44:38 30° WSW 07:49:09 10° SSW visible
02 Oct 3.3 07:02:47 52° NW 07:03:52 68° WSW 07:08:58 10° S visible
03 Oct 4.2 06:23:46 51° ESE 06:23:46 51° ESE 06:28:10 10° SSE visible
